This is the latest recevied weather packets stored in our database for station/object SV9TNF-2. If no packets are shown the sender has not sent any weather packets the latest 10 day(s).
| Time | Temp. | Humidity | Pressure | Rain* | Wind** | Luminosity | Snow |
|---|---|---|---|---|---|---|---|
| 1777816145 | 15.56° C | 54% | 1022.4 hPa | 0 mm | 22.35 m/s, 0° | - | - |
| 1777815846 | 15.56° C | 57% | 1022.4 hPa | 0 mm | 12.07 m/s, 194° | - | - |
| 1777815545 | 15.56° C | 52% | 1022.4 hPa | 0 mm | 28.61 m/s, 358° | - | - |
| 1777815246 | 16.11° C | 56% | 1022.4 hPa | 0 mm | 18.78 m/s, 3° | - | - |
| 1777814945 | 15.56° C | 51% | 1022.4 hPa | 0 mm | 19.22 m/s, 1° | - | - |
| 1777814645 | 16.11° C | 57% | 1022 hPa | 0 mm | 20.56 m/s, 65° | - | - |
| 1777814345 | 15.56° C | 56% | 1022 hPa | 0 mm | 21.9 m/s, 12° | - | - |
| 1777814045 | 16.11° C | 58% | 1022 hPa | 0 mm | 10.73 m/s, 44° | - | - |
| 1777813745 | 16.11° C | 55% | 1022 hPa | 0 mm | 24.14 m/s, 35° | - | - |
| 1777813445 | 16.11° C | 58% | 1022 hPa | 0 mm | 16.99 m/s, 1° | - | - |
| 1777813144 | 16.11° C | 53% | 1022 hPa | 0 mm | 12.07 m/s, 352° | - | - |
| 1777812844 | 15.56° C | 53% | 1022 hPa | 0 mm | 22.8 m/s, 8° | - | - |
| 1777812544 | 16.11° C | 53% | 1022 hPa | 0 mm | 14.75 m/s, 44° | - | - |
| 1777812244 | 16.11° C | 48% | 1022 hPa | 0 mm | 17.88 m/s, 59° | - | - |
| 1777811944 | 16.67° C | 53% | 1022 hPa | 0 mm | 16.09 m/s, 10° | - | - |
| 1777811644 | 16.67° C | 52% | 1022 hPa | 0 mm | 8.49 m/s, 30° | - | - |
| 1777811344 | 16.11° C | 58% | 1022 hPa | 0 mm | 12.52 m/s, 118° | - | - |
| 1777811044 | 16.11° C | 55% | 1022 hPa | 0 mm | 10.73 m/s, 44° | - | - |
| 1777810744 | 16.67° C | 53% | 1022 hPa | 0 mm | 12.96 m/s, 0° | - | - |
| 1777810444 | 16.67° C | 56% | 1022 hPa | 0 mm | 12.96 m/s, 59° | - | - |
| 1777810143 | 16.11° C | 55% | 1022 hPa | 0 mm | 8.05 m/s, 302° | - | - |
| 1777809843 | 15.56° C | 54% | 1022 hPa | 0 mm | 21.01 m/s, 0° | - | - |
| 1777809543 | 16.67° C | 54% | 1022.4 hPa | 0 mm | 16.09 m/s, 296° | - | - |
| 1777809243 | 15.56° C | 53% | 1022.4 hPa | 0 mm | 17.88 m/s, 352° | - | - |
| 1777808943 | 16.67° C | 53% | 1022.4 hPa | 0 mm | 12.96 m/s, 258° | - | - |
* Rain latest hour (hover to see other rain measurements)
** Current wind speed in m/s (hover to see current wind gust speed)